Hourly Weather Golchichi

Today, 7 May, Friday

Time Temperature Precipitation Wind Pressure Humidity
00:00 +3°C° 0.1 mm 3 mps 742 mmHg 85%
01:00 +2°C° 0.1 mm 3 mps 742 mmHg 87%
02:00 +2°C° 0.1 mm 3 mps 742 mmHg 90%
03:00 +2°C° 0 mm 3 mps 742 mmHg 91%
04:00 +2°C° 0 mm 3 mps 742 mmHg 92%
05:00 +2°C° 0 mm 3 mps 742 mmHg 94%
06:00 +3°C° 0 mm 3 mps 742 mmHg 89%
07:00 +5°C° 0 mm 3 mps 742 mmHg 84%
08:00 +7°C° 0 mm 4 mps 742 mmHg 78%
09:00 +8°C° 0 mm 4 mps 742 mmHg 74%
10:00 +9°C° 0 mm 5 mps 742 mmHg 69%
11:00 +10°C° 0 mm 6 mps 741 mmHg 65%
12:00 +10°C° 0.3 mm 6 mps 741 mmHg 70%
13:00 +9°C° 0.3 mm 6 mps 741 mmHg 75%
14:00 +9°C° 0.3 mm 6 mps 740 mmHg 80%
15:00 +8°C° 0.7 mm 5 mps 740 mmHg 85%
16:00 +8°C° 0.7 mm 4 mps 740 mmHg 89%
17:00 +8°C° 0.7 mm 3 mps 739 mmHg 94%
18:00 +8°C° 0.1 mm 2 mps 739 mmHg 94%
19:00 +8°C° 0.1 mm 2 mps 739 mmHg 94%
20:00 +8°C° 0.1 mm 2 mps 739 mmHg 95%
21:00 +7°C° 0 mm 2 mps 739 mmHg 95%
22:00 +7°C° 0 mm 2 mps 739 mmHg 95%
23:00 +6°C° 0 mm 2 mps 739 mmHg 96%

Tomorrow, 8 May, Saturday

Time Temperature Precipitation Wind Pressure Humidity
00:00 +6°C° 0 mm 2 mps 739 mmHg 96%
01:00 +6°C° 0 mm 2 mps 739 mmHg 96%
02:00 +6°C° 0 mm 2 mps 739 mmHg 95%
03:00 +6°C° 0.1 mm 2 mps 739 mmHg 95%
04:00 +6°C° 0.1 mm 2 mps 739 mmHg 96%
05:00 +6°C° 0.1 mm 2 mps 739 mmHg 96%
06:00 +4°C° 0.4 mm 3 mps 740 mmHg 94%
07:00 +4°C° 0.4 mm 4 mps 740 mmHg 92%
08:00 +3°C° 0.4 mm 5 mps 741 mmHg 91%
09:00 +5°C° 0.2 mm 5 mps 742 mmHg 81%
10:00 +5°C° 0.2 mm 6 mps 742 mmHg 71%
11:00 +7°C° 0.2 mm 6 mps 743 mmHg 62%
12:00 +6°C° 0 mm 7 mps 744 mmHg 61%
13:00 +6°C° 0 mm 7 mps 744 mmHg 61%
14:00 +6°C° 0 mm 8 mps 745 mmHg 61%
15:00 +6°C° 0 mm 7 mps 745 mmHg 59%
16:00 +8°C° 0 mm 6 mps 746 mmHg 58%
17:00 +8°C° 0 mm 5 mps 746 mmHg 56%
18:00 +6°C° 0 mm 4 mps 747 mmHg 64%
19:00 +5°C° 0 mm 4 mps 747 mmHg 72%
20:00 +4°C° 0 mm 3 mps 748 mmHg 80%
21:00 +3°C° 0 mm 3 mps 748 mmHg 82%
22:00 +3°C° 0 mm 3 mps 748 mmHg 85%
23:00 +2°C° 0 mm 3 mps 749 mmHg 87%

Day after tomorrow, 9 May, Sunday

Time Temperature Precipitation Wind Pressure Humidity
00:00 +2°C° 0 mm 3 mps 749 mmHg 90%
01:00 +1°C° 0 mm 3 mps 750 mmHg 92%
02:00 +2°C° 0 mm 2 mps 750 mmHg 95%
03:00 +2°C° 0 mm 2 mps 750 mmHg 95%
04:00 +2°C° 0 mm 2 mps 751 mmHg 95%
05:00 +1°C° 0 mm 2 mps 751 mmHg 95%
06:00 +3°C° 0 mm 2 mps 752 mmHg 87%
07:00 +5°C° 0 mm 2 mps 752 mmHg 80%
08:00 +7°C° 0 mm 2 mps 753 mmHg 72%
09:00 +8°C° 0 mm 2 mps 753 mmHg 66%
10:00 +10°C° 0 mm 2 mps 753 mmHg 60%
11:00 +12°C° 0 mm 2 mps 753 mmHg 54%
12:00 +12°C° 0 mm 3 mps 753 mmHg 51%
13:00 +12°C° 0 mm 3 mps 753 mmHg 48%
14:00 +13°C° 0 mm 3 mps 753 mmHg 44%
15:00 +13°C° 0 mm 3 mps 753 mmHg 45%
16:00 +13°C° 0 mm 3 mps 753 mmHg 46%
17:00 +13°C° 0 mm 3 mps 753 mmHg 47%
18:00 +11°C° 0 mm 3 mps 753 mmHg 54%
19:00 +10°C° 0 mm 2 mps 754 mmHg 61%
20:00 +8°C° 0 mm 2 mps 754 mmHg 69%
21:00 +7°C° 0 mm 3 mps 754 mmHg 70%
22:00 +7°C° 0 mm 3 mps 754 mmHg 71%
23:00 +5°C° 0 mm 3 mps 755 mmHg 73%

10 May, Monday

Time Temperature Precipitation Wind Pressure Humidity
00:00 +5°C° 0 mm 3 mps 755 mmHg 73%
01:00 +5°C° 0 mm 3 mps 755 mmHg 74%
02:00 +4°C° 0 mm 3 mps 755 mmHg 75%
03:00 +4°C° 0 mm 3 mps 755 mmHg 76%
04:00 +4°C° 0 mm 3 mps 755 mmHg 77%
05:00 +4°C° 0 mm 3 mps 755 mmHg 78%
06:00 +7°C° 0 mm 3 mps 756 mmHg 73%
07:00 +8°C° 0 mm 4 mps 756 mmHg 68%
08:00 +11°C° 0 mm 4 mps 756 mmHg 62%
09:00 +13°C° 0 mm 5 mps 756 mmHg 58%
10:00 +14°C° 0 mm 5 mps 756 mmHg 54%
11:00 +16°C° 0 mm 5 mps 756 mmHg 49%
12:00 +16°C° 0 mm 6 mps 756 mmHg 48%
13:00 +17°C° 0 mm 6 mps 755 mmHg 46%
14:00 +17°C° 0 mm 6 mps 755 mmHg 44%
15:00 +17°C° 0 mm 5 mps 755 mmHg 47%
16:00 +17°C° 0 mm 5 mps 755 mmHg 50%
17:00 +18°C° 0 mm 4 mps 755 mmHg 53%
18:00 +15°C° 0 mm 4 mps 755 mmHg 60%
19:00 +13°C° 0 mm 4 mps 755 mmHg 66%
20:00 +11°C° 0 mm 4 mps 755 mmHg 72%
21:00 +11°C° 0 mm 4 mps 755 mmHg 74%
22:00 +10°C° 0 mm 4 mps 755 mmHg 75%
23:00 +8°C° 0 mm 4 mps 755 mmHg 76%

11 May, Tuesday

Time Temperature Precipitation Wind Pressure Humidity
00:00 +8°C° 0 mm 4 mps 755 mmHg 76%
01:00 +7°C° 0 mm 4 mps 755 mmHg 76%
02:00 +7°C° 0 mm 4 mps 756 mmHg 77%
03:00 +6°C° 0 mm 4 mps 755 mmHg 78%
04:00 +6°C° 0 mm 4 mps 755 mmHg 79%
05:00 +5°C° 0 mm 4 mps 755 mmHg 79%
06:00 +7°C° 0 mm 4 mps 755 mmHg 74%
07:00 +9°C° 0 mm 5 mps 755 mmHg 68%
08:00 +12°C° 0 mm 5 mps 755 mmHg 62%
09:00 +13°C° 0 mm 5 mps 755 mmHg 57%
10:00 +15°C° 0 mm 6 mps 755 mmHg 51%
11:00 +16°C° 0 mm 6 mps 755 mmHg 46%
12:00 +17°C° 0 mm 6 mps 754 mmHg 44%
13:00 +19°C° 0 mm 5 mps 754 mmHg 42%
14:00 +19°C° 0 mm 5 mps 754 mmHg 41%
15:00 +19°C° 0 mm 5 mps 753 mmHg 44%
16:00 +19°C° 0 mm 5 mps 753 mmHg 48%
17:00 +19°C° 0 mm 5 mps 753 mmHg 51%
18:00 +17°C° 0 mm 4 mps 753 mmHg 59%
19:00 +14°C° 0 mm 4 mps 752 mmHg 66%
20:00 +12°C° 0 mm 3 mps 752 mmHg 74%
21:00 +11°C° 0 mm 3 mps 752 mmHg 77%
22:00 +11°C° 0 mm 3 mps 752 mmHg 81%
23:00 +10°C° 0 mm 3 mps 752 mmHg 84%

12 May, Wednesday

Time Temperature Precipitation Wind Pressure Humidity
00:00 +10°C° 0 mm 3 mps 752 mmHg 87%
01:00 +9°C° 0 mm 3 mps 752 mmHg 90%
02:00 +9°C° 0 mm 3 mps 752 mmHg 92%
03:00 +9°C° 0 mm 3 mps 751 mmHg 94%
04:00 +9°C° 0 mm 3 mps 751 mmHg 95%
05:00 +9°C° 0 mm 3 mps 751 mmHg 96%
06:00 +11°C° 0 mm 3 mps 751 mmHg 90%
07:00 +13°C° 0 mm 4 mps 751 mmHg 84%
08:00 +15°C° 0 mm 4 mps 750 mmHg 78%
09:00 +17°C° 0 mm 5 mps 750 mmHg 71%
10:00 +19°C° 0 mm 6 mps 750 mmHg 65%
11:00 +21°C° 0 mm 7 mps 749 mmHg 59%
12:00 +20°C° 0.1 mm 7 mps 749 mmHg 62%
13:00 +20°C° 0.1 mm 7 mps 749 mmHg 65%
14:00 +18°C° 0.1 mm 8 mps 748 mmHg 69%
15:00 +17°C° 0.1 mm 7 mps 748 mmHg 74%
16:00 +16°C° 0.1 mm 7 mps 748 mmHg 79%
17:00 +15°C° 0.1 mm 7 mps 747 mmHg 84%
18:00 +14°C° 0 mm 6 mps 748 mmHg 85%
19:00 +13°C° 0 mm 6 mps 748 mmHg 86%
20:00 +11°C° 0 mm 6 mps 748 mmHg 87%
21:00 +10°C° 0 mm 5 mps 748 mmHg 89%
22:00 +9°C° 0 mm 5 mps 748 mmHg 91%
23:00 +8°C° 0 mm 4 mps 748 mmHg 92%
Show more